Location: Grand Mazuras
(45.9128°N, 1.7636°E)
Time: 18:03:45
(UTC+00:00)

Cosmos 1763 Rocket - Pass Details

Date: 18 April 2021
Orbit: 733 x 779 km, 74.0° (Epoch: 11 May)

Event Time Altitude Azimuth Distance (km) Brightness Sun altitude
Rises 21:56:07 0° 340° (NNW) 3,179 7.9 -27.3°
Reaches altitude 10° 21:58:30 10° 342° (NNW) 2,249 6.8 -27.5°
Enters shadow 22:02:58 63° 22° (NNE) 820 3.7 -27.9°
